WZZ4303 EDDF-LEPA

Flight info

Callsign WZZ4303
Flight time N/A
Altitude 39000
Route ANEKI2L/18 ANEKI Y163 HERBI/N0446F390 Y164 MOPAN DCT LUTIX DCT BENOT DCT NEMOS DCT GEVEA DCT INCUS DCT BALSI DCT RETNO DCT TUPOX DCT MTG DCT DIVKO DCT VATIR DCT PIVUS N852 VERSO L129 LUNIK LUNIK3P
Aircraft A320/M-SDE2E3FGIJ1RWYZ/LB1

Departure

Time 2026-05-05 14:11
Airport Frankfurt Main Airport (EDDF)

Arrival

Time N/A
Airport Palma de Mallorca Airport (LEPA)
Time Latitude Longitude Altitude Speed Heading
2026-05-05 14:04 50.04011 8.55444 354 ft 0 kts 161°
2026-05-05 14:06 50.04006 8.55446 359 ft 5 kts 161°
2026-05-05 14:06 50.03954 8.55473 357 ft 9 kts 164°
2026-05-05 14:06 50.03920 8.55453 356 ft 2 kts 249°
2026-05-05 14:06 50.03912 8.55402 352 ft 9 kts 256°
2026-05-05 14:07 50.03887 8.55271 355 ft 16 kts 249°
2026-05-05 14:07 50.03841 8.55081 354 ft 22 kts 250°
2026-05-05 14:07 50.03781 8.54825 355 ft 28 kts 248°
2026-05-05 14:07 50.03708 8.54525 347 ft 33 kts 250°
2026-05-05 14:08 50.03624 8.54172 345 ft 36 kts 250°
2026-05-05 14:08 50.03530 8.53790 346 ft 39 kts 249°
2026-05-05 14:08 50.03435 8.53382 344 ft 41 kts 249°
2026-05-05 14:08 50.03331 8.52955 334 ft 43 kts 249°
2026-05-05 14:09 50.03259 8.52672 335 ft 2 kts 232°
2026-05-05 14:09 50.03233 8.52620 337 ft 10 kts 232°
2026-05-05 14:09 50.03180 8.52576 337 ft 7 kts 173°
2026-05-05 14:09 50.03128 8.52593 336 ft 0 kts 176°
2026-05-05 14:10 50.03103 8.52595 338 ft 21 kts 176°
2026-05-05 14:10 50.02690 8.52606 336 ft 99 kts 181°
2026-05-05 14:10 50.01739 8.52597 498 ft 158 kts 184°
2026-05-05 14:11 50.00589 8.52553 1346 ft 170 kts 185°
2026-05-05 14:11 49.99431 8.52492 2327 ft 163 kts 182°
2026-05-05 14:11 49.98250 8.52533 3033 ft 182 kts 178°
2026-05-05 14:11 49.96890 8.52712 3456 ft 209 kts 176°
2026-05-05 14:12 49.95348 8.52900 4055 ft 234 kts 177°
2026-05-05 14:12 49.93674 8.53063 4927 ft 247 kts 178°
2026-05-05 14:12 49.91919 8.53209 5825 ft 258 kts 178°
2026-05-05 14:12 49.90105 8.53345 6711 ft 263 kts 178°
2026-05-05 14:13 49.88256 8.53477 7563 ft 267 kts 178°
2026-05-05 14:13 49.86412 8.53603 8444 ft 270 kts 178°
2026-05-05 14:13 49.84500 8.53730 9366 ft 273 kts 178°
2026-05-05 14:13 49.82613 8.53854 10224 ft 276 kts 178°
2026-05-05 14:14 49.80676 8.53982 11089 ft 280 kts 177°
2026-05-05 14:14 49.78716 8.54092 11972 ft 284 kts 180°
2026-05-05 14:14 49.76734 8.53965 12882 ft 287 kts 183°
2026-05-05 14:14 49.74725 8.53716 13799 ft 291 kts 184°
2026-05-05 14:15 49.72703 8.53443 14638 ft 293 kts 184°
2026-05-05 14:15 49.70666 8.53166 15487 ft 295 kts 184°
2026-05-05 14:15 49.68611 8.52890 16255 ft 299 kts 184°
2026-05-05 14:15 49.66524 8.52611 17037 ft 302 kts 184°
2026-05-05 14:16 49.64429 8.52333 17833 ft 304 kts 184°
2026-05-05 14:16 49.62318 8.52053 18577 ft 305 kts 184°
2026-05-05 14:16 49.60200 8.51774 19297 ft 306 kts 184°
2026-05-05 14:16 49.58077 8.51494 20026 ft 306 kts 184°
2026-05-05 14:17 49.55952 8.51215 20776 ft 306 kts 184°
2026-05-05 14:17 49.53832 8.50936 21538 ft 305 kts 184°
2026-05-05 14:17 49.51724 8.50658 22325 ft 303 kts 184°
2026-05-05 14:17 49.49635 8.50384 23122 ft 300 kts 184°
2026-05-05 14:18 49.47575 8.50114 23858 ft 295 kts 184°
2026-05-05 14:18 49.45551 8.49848 24547 ft 289 kts 184°
2026-05-05 14:18 49.43569 8.49588 25256 ft 282 kts 184°
2026-05-05 14:18 49.41668 8.49339 25967 ft 273 kts 184°
2026-05-05 14:19 49.39811 8.49096 26703 ft 262 kts 184°
2026-05-05 14:19 49.38039 8.48863 27447 ft 248 kts 184°
2026-05-05 14:19 49.36375 8.48645 28193 ft 231 kts 183°
2026-05-05 14:19 49.34849 8.48443 28891 ft 211 kts 183°
2026-05-05 14:20 49.33397 8.48252 29070 ft 212 kts 183°
2026-05-05 14:20 49.31829 8.48049 28188 ft 253 kts 183°
2026-05-05 14:20 49.29806 8.47805 26517 ft 327 kts 184°
2026-05-05 14:20 49.27343 8.47499 25375 ft 378 kts 184°
2026-05-05 14:21 49.24590 8.47144 24680 ft 413 kts 184°
2026-05-05 14:21 49.21645 8.46757 24369 ft 434 kts 185°
2026-05-05 14:21 49.18594 8.46352 24419 ft 444 kts 185°
2026-05-05 14:21 49.15512 8.45945 24803 ft 445 kts 184°
2026-05-05 14:22 49.12428 8.45540 25281 ft 444 kts 184°
2026-05-05 14:22 49.09353 8.45138 25777 ft 442 kts 184°
2026-05-05 14:22 49.06352 8.44561 26267 ft 442 kts 189°
2026-05-05 14:22 49.03331 8.43671 26779 ft 442 kts 190°
2026-05-05 14:23 49.00327 8.42696 27298 ft 441 kts 191°
2026-05-05 14:23 48.97334 8.41669 27832 ft 440 kts 191°
2026-05-05 14:23 48.94354 8.40622 28368 ft 439 kts 191°
2026-05-05 14:23 48.91390 8.39574 28923 ft 437 kts 191°
2026-05-05 14:24 48.88433 8.38531 29480 ft 435 kts 191°
2026-05-05 14:24 48.85493 8.37499 30027 ft 432 kts 191°
2026-05-05 14:24 48.82569 8.36480 30513 ft 429 kts 191°
2026-05-05 14:24 48.79673 8.35474 31001 ft 426 kts 191°
2026-05-05 14:25 48.76797 8.34456 31515 ft 422 kts 191°
2026-05-05 14:25 48.73952 8.33425 32029 ft 418 kts 192°
2026-05-05 14:25 48.71137 8.32394 32564 ft 414 kts 192°
2026-05-05 14:25 48.68348 8.31370 33081 ft 409 kts 192°
2026-05-05 14:26 48.65596 8.30361 33625 ft 404 kts 192°
2026-05-05 14:26 48.62882 8.29368 34125 ft 399 kts 192°
2026-05-05 14:26 48.60206 8.28392 34588 ft 393 kts 192°
2026-05-05 14:26 48.57576 8.27435 35064 ft 386 kts 192°
2026-05-05 14:27 48.54977 8.26492 35553 ft 379 kts 193°
2026-05-05 14:27 48.52440 8.25573 36045 ft 371 kts 193°
2026-05-05 14:27 48.49952 8.24674 36537 ft 363 kts 194°
2026-05-05 14:27 48.47523 8.23793 37048 ft 354 kts 194°
2026-05-05 14:28 48.45158 8.22932 37567 ft 345 kts 194°
2026-05-05 14:28 48.42890 8.22105 38094 ft 334 kts 195°
2026-05-05 14:28 48.40671 8.21296 38586 ft 322 kts 195°
2026-05-05 14:28 48.38511 8.20508 38796 ft 318 kts 195°
2026-05-05 14:29 48.34211 8.18937 38840 ft 318 kts 195°
2026-05-05 14:29 48.29892 8.17363 38843 ft 320 kts 195°
2026-05-05 14:30 48.25590 8.15695 38842 ft 322 kts 199°
2026-05-05 14:30 48.21447 8.13111 38842 ft 324 kts 205°
2026-05-05 14:31 48.17374 8.10143 38845 ft 327 kts 206°
2026-05-05 14:31 48.13284 8.07083 38843 ft 331 kts 206°
2026-05-05 14:32 48.09133 8.03994 38850 ft 335 kts 206°
2026-05-05 14:32 48.04914 8.00879 38857 ft 341 kts 206°
2026-05-05 14:33 48.00628 7.97730 38853 ft 346 kts 206°
2026-05-05 14:33 47.96270 7.94535 38855 ft 352 kts 206°
2026-05-05 14:34 47.91843 7.91294 38851 ft 357 kts 206°
2026-05-05 14:34 47.87345 7.88007 38855 ft 363 kts 206°
2026-05-05 14:35 47.82778 7.84675 38856 ft 369 kts 206°
2026-05-05 14:35 47.78124 7.81287 38853 ft 376 kts 206°
2026-05-05 14:36 47.73410 7.77862 38855 ft 383 kts 206°
2026-05-05 14:36 47.68573 7.74356 38857 ft 390 kts 206°
2026-05-05 14:37 47.63648 7.70793 38859 ft 397 kts 206°
2026-05-05 14:37 47.58629 7.67169 38860 ft 405 kts 206°
2026-05-05 14:38 47.53627 7.63567 38858 ft 412 kts 206°
2026-05-05 14:38 47.48415 7.59819 38857 ft 420 kts 206°
2026-05-05 14:39 47.43148 7.56042 38856 ft 427 kts 206°
2026-05-05 14:39 47.37748 7.52178 38856 ft 435 kts 206°
2026-05-05 14:40 47.32254 7.48255 38879 ft 442 kts 206°
2026-05-05 14:40 47.29484 7.46281 39083 ft 422 kts 206°
2026-05-05 14:40 47.27243 7.44688 42344 ft 312 kts 207°
2026-05-05 14:41 47.25479 7.43437 44592 ft 257 kts 208°
2026-05-05 14:41 47.23884 7.42295 44208 ft 265 kts 208°
2026-05-05 14:41 47.22047 7.40924 41643 ft 333 kts 208°
2026-05-05 14:41 47.19764 7.39118 39351 ft 408 kts 210°
2026-05-05 14:42 47.17307 7.36934 38985 ft 420 kts 216°
2026-05-05 14:42 47.15039 7.34049 38358 ft 441 kts 226°
2026-05-05 14:42 47.13237 7.30999 40546 ft 334 kts 231°
2026-05-05 14:42 47.11997 7.28493 43183 ft 286 kts 235°
2026-05-05 14:43 47.10820 7.25980 41426 ft 324 kts 235°
2026-05-05 14:43 47.09371 7.22866 38245 ft 427 kts 236°
2026-05-05 14:43 47.07592 7.19267 37812 ft 440 kts 230°
2026-05-05 14:43 47.05597 7.15833 37776 ft 445 kts 227°